CDT,Max TemperatureF,Mean TemperatureF,Min TemperatureF,Max Dew PointF,MeanDew PointF,Min DewpointF,Max Humidity, Mean Humidity, Min Humidity, Max Sea Level PressureIn, Mean Sea Level PressureIn, Min Sea Level PressureIn, Max VisibilityMiles, Mean VisibilityMiles, Min VisibilityMiles, Max Wind SpeedMPH, Mean Wind SpeedMPH, Max Gust SpeedMPH,PrecipitationIn, CloudCover, Events, WindDirDegrees
2012-10-1,63,61,58,61,58,55,100,95,90,29.78,29.63,29.53,10,4,1,17,9,23,1.65,8,Rain-Thunderstorm,16
2012-10-2,59,57,54,56,55,54,100,93,86,29.96,29.77,29.65,10,6,2,9,4,13,0.02,8,,282
2012-10-3,75,62,48,54,51,48,100,71,41,30.16,30.05,29.98,10,5,0,13,3,17,0.00,0,Fog,170
2012-10-4,79,65,51,61,55,51,100,73,45,30.26,30.20,30.16,10,5,0,12,3,16,0.00,0,Fog,187
2012-10-5,80,62,44,62,55,44,100,74,48,30.19,30.12,29.95,10,6,0,28,8,35,0.31,2,Fog-Rain,210
2012-10-6,61,51,41,43,38,31,93,63,33,30.22,30.16,30.11,10,9,2,20,9,26,0.10,5,Rain,2
2012-10-7,58,51,44,38,37,34,76,58,40,30.24,30.19,30.16,10,10,10,14,7,20,0.00,3,,349
2012-10-8,61,50,38,41,36,31,89,61,32,30.24,30.19,30.14,10,10,10,9,2,17,0.00,3,,341
2012-10-9,66,51,35,45,39,35,100,72,44,30.18,30.12,30.01,10,5,0,13,4,16,0.00,1,Fog,164
2012-10-10,63,50,37,50,40,31,89,63,36,30.27,30.16,30.02,10,10,10,20,6,25,T,3,,323
2012-10-11,62,48,33,48,38,32,96,69,42,30.30,30.26,30.21,10,10,6,9,3,14,0.00,4,,211
2012-10-12,62,57,51,54,53,48,100,86,72,30.32,30.26,30.19,10,6,2,23,4,30,0.38,7,Rain-Thunderstorm,53
2012-10-13,79,65,50,64,58,49,100,80,60,30.26,30.17,30.04,10,6,1,18,8,23,0.00,5,,162
2012-10-14,76,68,59,64,61,53,93,77,60,29.99,29.92,29.84,10,9,2,28,13,39,0.19,5,Rain,206
2012-10-15,71,59,46,53,48,42,100,69,37,30.02,29.97,29.92,10,8,2,18,5,24,0.00,0,,286
2012-10-16,75,59,43,53,47,43,100,71,41,30.01,29.94,29.80,10,6,0,15,6,20,0.00,0,Fog,164
2012-10-17,78,64,50,57,50,45,96,64,32,29.82,29.69,29.52,10,8,2,24,10,33,0.70,3,Rain-Thunderstorm,188
2012-10-18,68,59,48,57,44,31,100,65,29,29.76,29.70,29.60,10,10,4,18,8,28,0.16,2,Rain-Thunderstorm,223
2012-10-19,58,53,48,42,38,35,71,59,47,29.83,29.73,29.65,10,10,10,20,8,30,0.00,5,,240
2012-10-20,64,55,45,45,43,42,93,72,51,30.00,29.92,29.83,10,10,9,13,5,18,0.00,5,,244
2012-10-21,79,62,44,56,50,43,92,68,43,30.09,30.04,30.00,10,10,9,13,6,18,0.00,3,,170
2012-10-22,82,70,57,52,51,49,80,57,33,30.14,30.08,30.06,10,10,10,17,7,23,0.00,2,,181
2012-10-23,81,67,52,54,50,48,89,61,33,30.12,30.06,30.01,10,10,7,20,7,24,0.00,0,,181
2012-10-24,81,66,51,57,53,49,89,66,42,30.12,30.06,30.01,10,10,9,14,5,18,0.00,0,,162
2012-10-25,81,68,54,58,55,51,86,64,42,30.05,29.99,29.95,10,10,9,18,6,26,0.00,1,,180
2012-10-26,64,54,44,57,44,40,93,85,77,30.18,30.14,29.98,10,7,2,21,12,25,0.38,8,Rain,358
2012-10-27,55,48,41,41,38,34,89,72,54,30.16,30.11,30.06,10,10,10,17,11,22,0.00,6,,357
2012-10-28,57,48,38,36,33,30,85,63,41,30.14,30.10,30.07,10,10,10,21,12,26,0.00,1,,346
2012-10-29,55,45,34,33,28,24,82,56,30,30.17,30.09,29.97,10,10,10,24,13,33,0.00,0,,332
2012-10-30,56,48,40,29,25,18,59,45,24,29.95,29.86,29.79,10,10,10,23,16,36,0.00,0,,301
2012-10-31,57,46,34,31,26,19,82,51,27,29.97,29.91,29.87,10,10,10,15,9,23,0.00,0,,290